{"data":{"norad_id":62071,"epoch":"2026-09-21T18:43:57.681408Z","epoch_age_seconds":70465,"freshness":"FRESH","line1":"1 62071U 24217Q   26264.78052872  .00022447  00000+0  67313-3 0  9992","line2":"2 62071  53.1604 359.5386 0001179  82.6929 277.4207 15.34416909103544","mean_motion":15.34416909,"eccentricity":0.0001179,"inclination_deg":53.1604,"raan_deg":359.5386,"arg_perigee_deg":82.6929,"mean_anomaly_deg":277.4207,"bstar":0.00067313,"rev_number":10354,"period_min":93.84672389582,"perigee_km":461.84645441815,"apogee_km":463.45951269628,"semimajor_km":6840.7899835572,"source":"CELESTRAK","updated_at":"2026-09-22T09:00:49.494679Z"}}